Tracking 19145 objects as of 26-Apr-2018
HD Live streaming from Space Station
objects crossing your sky now

FLOCK 3P 39

Track FLOCK 3P 39 now!
10-day predictions
FLOCK 3P 39 is classified as:


NORAD ID: 42038
Int'l Code: 2017-008CU
Perigee: 495.2 km
Apogee: 505.4 km
Inclination: 97.5 °
Period: 94.5 minutes
Semi major axis: 6871 km
RCS: Unknown
Launch date: February 15, 2017
Source: United States (US)
Launch site: SRIHARIKOTA (SRI)
aabbcc
Your satellite tracking list
Your tracking list is empty




NASA's NSSDC Master Catalog

Two Line Element Set (TLE):
1 42038U 17008CU  18114.86165437 +.00001523 +00000-0 +65443-4 0  9995
2 42038 097.4538 180.0997 0007365 190.1518 169.9571 15.24205739065888
Source of the keplerian elements: AFSPC